CAPE
13 0 0 264 18 66 79 6 11 232 59 85 151 149 61 36 51 0 0 0 2 33 121 397 1043 451 518 523 477 885 1335 1708 1950 2019 1996 1867 1809 1991 1926 1904 2029 1961 2005 1946 1813 1889 1945 1992 1912
0 0 2 212 65 83 133 41 68 32 52 139 96 33 0 0 0 2 0 20 21 237 298 549 769 780 499 346 227 674 1275 1667 1911 1995 1839 1821 1729 1819 1854 1943 1797 1933 2109 2069 1950 2037 1970 1623 1551
0 30 0 3 97 36 113 87 39 0 15 97 112 149 15 16 2 0 0 54 194 430 684 864 938 931 742 1181 1629 1486 1737 1770 1916 1802 1739 1581 1803 1769 1858 2079 2022 1835 2087 2104 2113 2113 1904 1527 1376
3 118 175 256 143 242 127 59 53 5 60 87 86 118 65 3 10 29 58 132 380 480 555 1615 1336 1356 1188 1632 1542 1581 1632 1796 1945 1852 1601 1567 1953 1857 1876 1953 2138 2055 2110 2034 1982 1842 1697 1674 1656
37 11 10 65 146 131 148 83 138 15 106 12 43 55 103 120 213 4 57 207 310 550 895 1361 2111 1994 1908 1825 1778 1667 1427 1459 1747 1753 1550 1694 1700 1897 2051 1964 1998 2033 1888 1693 1499 1532 1562 1572 1502
24 34 30 17 95 155 155 142 10 5 45 3 0 0 0 79 157 277 404 459 713 1070 1295 1354 1717 2092 1926 2021 1830 1703 1840 1725 1839 1887 1813 1805 1943 2038 1958 1864 1031 806 1008 1308 1334 1302 1253 1334 1232
3 25 79 28 122 255 138 56 17 14 22 9 0 0 0 23 108 60 69 35 348 1305 1328 1375 1434 1692 1511 1688 1760 1822 2029 1932 2000 1989 1875 1986 1934 1891 1914 1703 1803 1209 672 390 435 607 662 681 652
9 13 12 40 94 131 170 119 59 58 45 2 0 0 0 25 117 99 292 28 4 829 1220 1085 1245 1181 1252 1563 2131 1972 1967 1875 1753 2052 1669 1999 1999 1907 2002 2595 2298 1446 1369 1108 926 743 716 669 684
11 3 72 44 100 409 29 265 115 53 0 0 0 0 11 170 51 65 158 16 152 464 887 649 1001 1029 1029 1052 1417 1810 1933 1784 1798 1807 1574 2253 1117 1045 1236 1494 1733 1656 1603 1541 1481 1433 1431 1335 1168
492 0 0 81 172 34 65 168 239 34 5 1 5 0 144 140 49 207 55 144 45 444 523 622 890 763 872 1321 1266 1209 1322 1420 1381 1462 1325 474 557 690 997 1360 1683 1549 1515 1556 1717 1859 1936 1767 1324
352 46 84 278 171 78 5 107 186 70 9 10 0 0 2 205 152 184 152 131 10 379 640 471 695 735 824 1213 1147 1137 1174 886 892 951 801 546 483 723 856 540 936 768 1225 950 1208 1404 1557 1365 1306
391 495 137 382 371 0 1 109 244 153 83 12 1 1 0 0 48 73 23 0 34 214 359 264 426 398 434 1009 976 241 653 687 632 704 701 540 357 465 391 421 534 444 409 453 583 444 703 801 782
258 627 213 656 280 0 5 81 172 231 202 2 2 0 0 0 6 77 20 84 32 130 122 217 165 176 456 783 216 127 177 535 248 400 513 277 42 63 4 23 35 283 238 204 268 358 312 432 426
344 537 188 141 0 0 5 147 84 246 315 4 12 4 0 2 0 142 112 39 3 0 65 239 62 104 242 532 288 262 366 469 50 305 334 193 68 8 112 106 215 365 341 371 270 262 273 554 0
458 364 545 68 2 53 204 317 261 235 70 107 21 25 0 4 7 130 126 86 48 10 267 147 7 156 0 4 97 177 158 299 82 254 458 651 57 71 836 802 795 538 238 183 174 219 454 234 0
570 577 302 47 3 532 25 21 240 134 66 34 260 146 43 2 19 77 171 129 49 117 245 26 53 284 0 0 250 233 0 418 475 642 643 619 493 594 1267 848 874 503 751 240 752 1268 1213 289 17
176 267 292 22 7 450 160 64 56 44 31 68 245 27 41 41 15 0 158 117 261 407 389 0 160 253 4 85 365 215 22 706 457 387 569 875 1047 1226 780 914 917 221 259 169 916 974 455 370 115
0 222 483 361 359 568 227 54 73 23 4 94 192 36 61 27 0 0 66 224 426 508 448 315 828 500 302 542 506 450 293 182 211 420 398 904 891 1268 624 230 9 4 0 0 109 418 76 144 185
0 31 395 272 491 899 373 126 73 0 0 0 170 18 59 1 3 6 31 351 383 315 280 465 615 698 684 974 368 623 112 4 382 285 427 1043 1148 1185 894 0 0 0 0 0 173 226 0 16 289
0 131 858 996 1129 452 409 272 97 20 0 0 135 23 8 31 0 16 254 357 305 323 378 357 592 626 389 1068 508 517 565 230 346 367 972 784 641 1193 905 194 0 0 0 0 65 4 0 4 218
0 33 795 880 1111 747 341 269 295 52 6 0 198 0 8 63 27 2 155 214 253 274 250 237 567 576 359 1090 688 706 177 7 324 570 751 897 916 1208 667 418 0 12 41 604 33 0 43 48 8
0 0 443 719 557 281 7 0 0 283 39 40 145 13 1 89 58 0 87 122 119 182 267 493 626 638 571 716 681 731 476 133 33 377 830 567 975 884 886 309 234 133 0 21 271 3 90 0 0
0 0 60 437 15 0 12 0 0 71 176 61 114 212 0 0 40 12 54 54 89 101 525 512 640 568 743 600 432 609 369 115 42 250 701 346 528 746 1099 785 207 3 2 67 190 122 46 35 3
0 0 0 0 0 0 0 3 0 415 432 300 215 250 65 0 5 32 17 34 58 72 462 481 513 422 841 828 636 339 314 510 457 224 666 671 513 891 667 972 732 285 241 742 1053 860 562 618 204
0 0 0 0 0 0 0 0 0 10 429 484 344 174 89 40 22 56 73 85 48 98 234 582 465 373 708 740 804 741 566 352 397 531 679 713 531 521 584 882 912 999 1019 930 1163 1038 1218 910 957
0 0 0 0 0 0 0 10 241 233 643 668 506 354 174 124 0 22 35 11 96 119 136 530 415 378 477 571 612 506 846 699 197 411 271 402 680 565 450 523 1121 1247 1254 1160 918 1261 825 820 855
0 0 0 0 0 0 0 7 0 131 173 717 632 404 250 156 80 1 39 1 39 108 145 370 412 339 445 533 517 462 488 998 423 470 336 302 447 542 523 646 981 755 1255 986 879 1153 1222 1002 619
0 0 0 0 0 1 59 84 11 12 197 299 358 301 238 97 75 64 70 20 61 138 191 315 554 442 528 467 395 578 527 648 674 501 500 650 754 758 319 717 919 917 1004 1089 752 873 842 841 696
0 0 0 0 0 0 1 1 8 0 1 123 291 423 291 265 200 212 66 75 125 135 195 387 659 610 560 512 506 649 664 558 552 681 842 754 884 917 603 893 951 892 1009 980 1006 999 911 1082 825
0 0 0 0 0 0 0 0 3 12 124 53 111 322 260 409 446 286 256 170 152 235 130 505 603 633 552 534 607 782 835 607 540 637 593 755 711 516 886 740 843 722 879 922 986 825 1293 841 662
CIN
-360 -0 -0 -256 -128 -168 -31 -15 -15 -55 -84 -78 -87 -62 -122 -143 -78 -0 -0 -10 -14 -64 -20 -18 -1 -14 -5 -8 -14 -6 -0 -0 -0 -0 -0 -0 -0 -0 -0 -0 -0 -0 -0 -0 -0 -0 -2 -0 -0
-0 -0 -298 -248 -83 -69 -25 -56 -79 -95 -129 -99 -113 -140 -0 -0 -0 -82 -25 -112 -89 -28 -29 -17 -14 -5 -5 -23 -56 -12 -0 -0 -1 -2 -0 -0 -0 -0 -0 -0 -0 -0 -0 -0 -0 -0 -0 -0 -5
-0 -160 -0 -149 -91 -68 -20 -51 -85 -0 -63 -90 -81 -77 -40 -181 -141 -0 -0 -105 -49 -24 -15 -4 -9 -12 -15 -7 -0 -6 -0 -0 -7 -0 -0 -0 -0 -0 -0 -0 -0 -1 -0 -0 -0 -0 -0 -2 -12
-259 -268 -204 -75 -32 -20 -17 -58 -76 -82 -101 -113 -107 -68 -85 -99 -215 -180 -162 -69 -55 -34 -23 -0 -1 -6 -9 -0 -2 -0 -2 -0 -0 -0 -0 -0 -0 -0 -0 -0 -0 -0 -0 -0 -0 -0 -0 -7 -9
-325 -292 -132 -73 -44 -54 -48 -60 -49 -64 -79 -102 -141 -92 -62 -68 -110 -33 -157 -99 -87 -51 -24 -1 -0 -0 -0 -0 -0 -0 -0 -0 -0 -0 -2 -1 -0 -0 -0 -0 -0 -0 -0 -2 -4 -8 -9 -16 -17
-134 -215 -100 -48 -33 -13 -38 -26 -90 -10 -83 -21 -0 -0 -0 -95 -134 -90 -79 -81 -92 -31 -14 -4 -0 -0 -0 -0 -0 -1 -0 -0 -0 -0 -0 -0 -0 -0 -0 -0 -23 -48 -42 -17 -16 -22 -33 -28 -37
-217 -110 -2 -5 -26 -18 -10 -6 -51 -112 -114 -75 -0 -0 -0 -70 -108 -191 -200 -164 -100 -11 -6 -3 -3 -0 -0 -0 -0 -1 -0 -0 -0 -0 -0 -0 -0 -0 -0 -0 -0 -30 -55 -76 -75 -55 -49 -52 -55
-253 -84 -46 -15 -26 -93 -51 -13 -37 -50 -65 -22 -0 -0 -0 -85 -128 -155 -101 -171 -36 -48 -24 -23 -12 -15 -8 -2 -0 -0 -0 -0 -0 -0 -0 -0 -0 -0 -0 -0 -0 -15 -18 -41 -49 -54 -61 -64 -68
-48 -56 -16 -42 -75 -22 -109 -22 -7 -38 -0 -0 -0 -0 -23 -96 -155 -161 -97 -165 -133 -86 -47 -76 -46 -49 -47 -32 -5 -0 -0 -0 -0 -1 -0 -1 -29 -33 -29 -28 -6 -16 -22 -27 -31 -41 -50 -61 -68
-20 -0 -0 -144 -103 -118 -130 -62 -28 -20 -21 -5 -56 -0 -83 -109 -136 -109 -190 -148 -208 -76 -70 -76 -56 -72 -59 -13 -21 -19 -17 -12 -17 -16 -16 -76 -88 -77 -59 -35 -20 -30 -42 -43 -44 -50 -53 -58 -106
-103 -128 -134 -86 -113 -152 -134 -65 -46 -29 -45 -85 -129 -0 -10 -118 -147 -151 -143 -180 -210 -95 -84 -118 -73 -65 -49 -27 -41 -45 -42 -60 -67 -59 -72 -81 -94 -101 -83 -118 -88 -116 -76 -99 -76 -80 -89 -103 -124
-83 -73 -141 -57 -64 -0 -30 -78 -36 -52 -64 -76 -88 -71 -0 -0 -169 -169 -151 -2 -188 -151 -161 -147 -111 -94 -111 -77 -89 -185 -106 -83 -89 -77 -83 -101 -131 -127 -139 -152 -150 -157 -159 -152 -147 -186 -160 -149 -154
-102 -38 -131 -36 -61 -9 -101 -57 -32 -25 -23 -45 -15 -0 -0 -0 -71 -133 -169 -154 -208 -187 -224 -164 -193 -149 -117 -101 -205 -211 -187 -117 -127 -111 -110 -154 -202 -188 -153 -119 -206 -177 -201 -212 -196 -194 -200 -185 -205
-104 -42 -128 -69 -0 -0 -37 -83 -68 -54 -69 -25 -47 -48 -0 -61 -0 -140 -136 -196 -194 -0 -224 -192 -250 -204 -178 -134 -183 -180 -174 -135 -170 -112 -118 -126 -158 -315 -186 -165 -158 -164 -193 -191 -222 -160 -146 -120 -0
-69 -145 -92 -48 -23 -69 -43 -40 -66 -88 -125 -35 -47 -58 -0 -74 -26 -149 -163 -174 -216 -86 -168 -244 -247 -249 -4 -16 -231 -233 -257 -160 -167 -108 -91 -87 -160 -194 -84 -99 -100 -142 -175 -160 -154 -132 -117 -127 -0
-35 -55 -94 -215 -190 -58 -52 -74 -107 -141 -140 -146 -70 -25 -42 -19 -69 -98 -133 -169 -197 -180 -189 -332 -223 -199 -0 -4 -230 -247 -0 -159 -116 -125 -123 -77 -92 -93 -86 -121 -133 -170 -179 -230 -140 -113 -110 -134 -225
-47 -67 -96 -182 -273 -127 -89 -96 -120 -248 -190 -116 -98 -45 -40 -69 -107 -0 -147 -200 -146 -127 -142 -0 -191 -246 -128 -298 -196 -226 -131 -129 -144 -172 -110 -75 -58 -74 -133 -157 -189 -262 -253 -272 -181 -190 -242 -171 -174
-0 -53 -55 -68 -116 -151 -88 -139 -216 -281 -263 -182 -125 -91 -24 -53 -0 -0 -120 -151 -126 -108 -128 -136 -105 -174 -224 -159 -163 -161 -190 -198 -193 -137 -110 -81 -70 -67 -162 -230 -193 -66 -0 -0 -315 -204 -313 -353 -325
-0 -39 -45 -114 -95 -62 -89 -96 -254 -0 -0 -1 -189 -145 -77 -9 -111 -114 -126 -127 -139 -134 -151 -130 -98 -100 -115 -103 -134 -127 -160 -26 -156 -180 -118 -76 -62 -83 -141 -0 -0 -0 -0 -0 -314 -289 -0 -418 -333
-0 -35 -40 -57 -56 -85 -86 -81 -177 -234 -0 -0 -184 -157 -123 -101 -0 -93 -118 -121 -145 -172 -150 -162 -122 -144 -139 -85 -134 -129 -107 -148 -156 -165 -119 -91 -78 -94 -142 -263 -0 -0 -7 -0 -408 -370 -0 -299 -408
-0 -39 -54 -65 -49 -53 -80 -73 -91 -232 -153 -0 -171 -0 -160 -62 -71 -23 -129 -134 -157 -189 -198 -184 -167 -173 -149 -120 -143 -151 -181 -163 -139 -118 -94 -75 -66 -74 -132 -222 -0 -181 -175 -219 -381 -0 -193 -377 -148
-0 -0 -40 -55 -70 -32 -11 -0 -0 -159 -286 -252 -151 -97 -19 -124 -91 -0 -128 -148 -167 -194 -187 -165 -152 -170 -162 -143 -107 -91 -92 -110 -25 -115 -104 -83 -63 -69 -107 -244 -274 -298 -0 -176 -245 -44 -354 -0 -0
-0 -0 -55 -48 -49 -0 -55 -3 -0 -59 -229 -286 -256 -150 -0 -0 -167 -240 -200 -171 -160 -183 -169 -188 -165 -166 -159 -154 -134 -99 -114 -156 -98 -142 -75 -101 -93 -75 -71 -150 -248 -88 -21 -178 -141 -306 -361 -141 -135
-0 -0 -0 -0 -0 -0 -0 -33 -0 -157 -192 -235 -262 -225 -203 -0 -70 -112 -267 -187 -191 -161 -162 -193 -176 -191 -143 -136 -150 -127 -123 -103 -113 -142 -76 -87 -94 -75 -80 -84 -121 -154 -197 -136 -102 -133 -193 -192 -243
-0 -0 -0 -0 -0 -0 -0 -0 -0 -172 -173 -232 -243 -263 -205 -237 -218 -136 -150 -208 -204 -189 -177 -184 -188 -178 -167 -136 -117 -124 -119 -148 -121 -115 -105 -100 -90 -99 -86 -75 -79 -85 -91 -92 -78 -82 -79 -102 -108
-0 -0 -0 -0 -0 -0 -0 -42 -108 -142 -159 -199 -195 -202 -168 -203 -0 -241 -143 -202 -208 -212 -184 -171 -214 -186 -185 -167 -151 -148 -102 -113 -190 -112 -149 -123 -96 -90 -102 -100 -91 -73 -75 -81 -88 -76 -90 -92 -91
-0 -0 -0 -0 -0 -0 -0 -98 -0 -184 -219 -155 -167 -213 -176 -173 -229 -25 -141 -37 -247 -180 -227 -192 -225 -222 -191 -172 -155 -174 -153 -80 -132 -119 -138 -135 -129 -91 -116 -105 -87 -86 -66 -70 -78 -63 -52 -64 -91
-0 -0 -0 -0 -0 -4 -90 -108 -70 -98 -144 -167 -155 -186 -228 -272 -284 -260 -288 -222 -191 -191 -218 -197 -199 -238 -215 -182 -184 -156 -165 -136 -126 -129 -124 -106 -89 -97 -128 -103 -87 -69 -76 -71 -86 -72 -65 -60 -77
-0 -0 -0 -0 -0 -0 -5 -19 -43 -0 -98 -183 -183 -198 -232 -192 -258 -292 -311 -289 -198 -155 -165 -171 -179 -193 -214 -188 -181 -133 -140 -158 -135 -110 -89 -115 -79 -90 -116 -86 -77 -78 -59 -60 -57 -59 -57 -43 -57
-0 -0 -0 -0 -0 -0 -0 -0 -204 -135 -124 -154 -150 -164 -242 -275 -212 -268 -276 -277 -276 -207 -186 -150 -169 -194 -222 -213 -169 -153 -119 -128 -137 -105 -99 -109 -88 -110 -85 -96 -79 -83 -80 -74 -56 -52 -39 -46 -68
Wind_Speed
5 2 0 1 5 4 3 2 4 5 5 7 12 8 7 11 2 4 7 10 8 8 7 10 15 13 13 12 11 10 9 11 12 14 12 11 12 12 12 11 13 11 11 12 11 10 10 12 13
2 1 4 2 5 3 2 5 11 13 16 16 15 12 10 5 6 11 8 9 12 8 5 8 14 13 12 13 13 11 8 10 12 13 11 10 11 10 12 12 12 12 11 12 11 10 10 11 12
2 4 3 4 2 3 2 2 12 15 14 10 8 10 5 6 9 12 10 13 12 7 5 6 11 12 11 10 8 8 8 10 12 11 11 10 10 11 12 13 12 12 12 12 11 10 11 10 10
2 5 4 3 3 5 5 8 15 18 18 15 15 10 7 4 13 8 17 13 11 6 5 11 14 15 13 13 11 9 8 10 10 11 11 9 11 12 12 12 13 11 11 11 11 10 10 9 7
4 4 3 3 5 4 8 12 14 14 9 18 18 13 13 13 11 18 13 13 11 7 7 8 13 13 13 12 11 12 11 10 11 11 11 11 12 12 12 13 13 11 10 9 9 9 7 7 4
5 2 4 4 8 2 4 8 15 16 16 17 15 11 5 13 16 13 11 11 10 10 5 8 13 13 12 12 12 12 11 9 10 11 11 11 10 11 12 12 11 10 9 7 7 7 5 5 3
7 5 4 7 9 3 8 3 11 19 18 9 14 10 8 13 12 10 7 5 5 7 4 6 6 11 13 13 12 11 11 11 11 10 10 11 11 11 11 11 11 10 9 7 5 4 3 4 5
6 4 1 4 5 7 7 4 16 18 12 16 13 8 17 18 17 12 4 5 5 5 6 4 3 4 6 5 11 11 11 10 10 10 12 10 10 9 10 7 7 8 7 6 4 2 2 4 4
4 5 4 6 7 3 8 10 4 11 18 14 4 18 19 22 23 16 6 3 2 4 5 4 5 5 5 5 6 10 11 10 10 9 10 8 3 4 6 4 6 6 5 4 3 3 4 5 7
1 4 12 11 8 1 6 5 5 12 15 14 17 19 23 24 24 17 14 10 5 6 6 6 6 6 5 5 3 4 3 3 4 4 4 2 3 4 4 5 5 5 5 5 5 5 7 6 3
7 5 10 13 11 4 3 5 5 9 7 19 22 26 23 22 19 19 15 14 15 11 6 6 5 5 5 5 3 2 2 2 2 4 4 4 3 3 1 1 2 1 4 2 3 4 3 4 3
5 6 9 5 7 5 3 2 5 10 2 18 22 25 23 22 18 19 18 16 12 11 10 7 4 5 3 4 3 2 1 2 3 4 5 3 2 3 2 2 2 2 3 3 3 3 4 5 6
4 9 8 8 9 5 4 5 4 8 2 11 13 16 17 20 18 18 18 15 12 12 9 9 7 6 4 4 3 2 2 3 4 5 5 4 3 4 3 3 3 3 4 4 4 4 4 5 7
8 12 8 6 5 7 7 3 5 3 6 15 13 12 15 12 12 14 16 16 11 11 10 8 8 7 6 5 4 3 4 4 4 4 5 6 5 3 3 3 4 4 4 4 4 4 3 3 2
9 13 9 2 2 4 6 2 2 3 5 3 3 8 10 11 16 18 18 15 16 15 11 13 10 6 7 7 6 3 4 4 4 4 5 5 4 5 2 2 4 4 2 2 3 2 1 2 2
3 4 4 5 7 2 5 5 5 4 4 1 4 8 12 10 21 16 17 15 12 12 13 10 11 9 8 6 3 3 4 3 3 3 3 6 6 4 2 2 3 2 3 4 3 4 4 1 0
2 5 3 5 8 2 6 5 8 7 5 4 5 11 12 13 12 16 20 18 18 16 15 14 12 9 9 5 4 4 5 4 4 3 2 5 5 5 4 3 3 2 3 4 3 4 3 2 1
4 4 6 8 8 9 4 7 6 6 4 6 4 3 10 8 10 16 19 18 18 16 15 15 10 11 8 5 3 2 3 2 2 4 4 5 2 4 5 2 1 3 3 3 4 3 3 1 1
4 6 11 5 9 7 13 5 9 8 5 7 6 6 4 8 9 14 18 18 17 14 14 14 10 8 7 4 4 2 3 2 1 4 5 4 4 5 5 3 2 5 4 2 2 4 3 5 2
7 7 3 2 10 5 9 13 10 12 14 13 9 11 7 6 9 13 18 18 18 17 16 13 12 9 5 4 3 3 3 2 3 3 2 5 6 5 5 5 2 4 4 2 1 6 1 3 3
8 9 9 8 13 11 8 7 9 9 5 10 11 6 6 9 14 12 18 19 16 15 15 14 11 11 7 5 4 3 4 3 0 1 3 4 6 6 6 6 6 4 3 2 2 4 7 1 2
6 3 14 14 11 6 7 5 5 11 17 14 17 11 12 13 8 15 17 18 18 16 15 13 12 11 8 8 5 6 5 4 4 4 3 4 6 6 6 6 6 5 3 2 1 4 4 4 1
6 3 8 6 5 4 1 4 7 7 11 19 19 17 16 15 13 14 20 20 18 15 14 13 13 11 8 9 8 5 5 4 3 3 5 3 3 5 6 8 7 6 4 3 2 2 4 3 2
3 7 9 5 3 3 7 7 7 5 12 16 16 20 16 14 13 13 16 17 15 13 13 12 13 11 9 8 8 8 7 6 3 4 4 4 4 4 5 7 6 5 4 4 4 3 5 4 4
7 8 4 5 4 7 2 5 9 6 7 17 21 18 16 11 13 14 10 17 15 16 15 13 14 13 11 10 9 8 8 7 7 6 5 5 3 3 6 5 6 4 5 6 5 4 4 4 2
3 10 8 6 4 7 2 4 5 3 6 9 12 10 10 10 11 14 12 18 18 18 17 17 16 15 11 11 11 8 8 5 5 5 4 4 4 4 4 6 6 6 6 4 4 2 2 2 2
2 1 8 6 1 3 2 2 3 7 7 5 1 5 9 8 10 13 14 12 17 17 18 19 17 15 14 13 11 9 8 7 7 7 5 4 5 4 6 6 6 6 5 5 4 3 4 2 2
10 5 5 4 2 2 3 1 5 1 2 1 5 8 9 5 9 9 8 7 17 19 18 18 17 18 15 14 11 10 11 9 7 6 7 6 5 5 6 6 6 5 5 5 5 3 3 3 3
1 1 4 6 5 5 2 6 4 2 2 3 4 4 2 8 7 7 6 7 10 16 19 17 16 16 14 14 12 11 10 10 7 7 6 7 5 6 7 6 6 6 6 6 5 5 5 5 4
7 9 7 7 6 2 5 6 3 3 6 4 2 1 4 2 3 3 3 4 7 7 10 14 14 15 16 15 12 12 10 10 9 8 7 7 7 6 7 6 6 6 6 6 6 6 5 5 5
Wind_Direction
199 199 71 40 59 63 282 41 108 174 76 70 77 123 96 29 121 164 152 157 148 154 171 162 161 151 143 133 120 116 123 122 117 105 106 113 112 108 111 106 111 117 125 116 120 120 117 111 109
223 132 28 47 65 50 358 108 99 99 116 108 84 81 54 75 66 107 110 157 146 155 169 163 153 145 130 121 117 112 130 127 114 101 115 115 115 116 113 109 105 114 122 120 123 115 108 107 104
71 90 75 61 113 192 157 138 109 119 129 112 97 67 70 117 108 135 139 146 148 153 139 160 143 131 133 132 127 124 132 121 105 120 125 127 123 123 121 112 111 118 120 120 119 118 111 108 104
37 11 30 37 293 235 160 144 119 106 92 96 108 70 61 95 142 161 151 152 136 131 140 152 149 150 147 146 140 143 128 117 119 132 129 124 120 118 120 124 120 116 119 118 118 117 119 116 121
34 42 59 337 320 300 146 139 134 118 86 103 114 125 124 158 113 136 161 142 138 145 154 149 151 150 148 146 151 146 143 140 137 142 136 133 128 123 125 124 122 121 119 117 117 119 130 131 142
64 24 46 18 312 49 127 144 113 105 114 110 103 108 137 148 125 147 133 139 138 143 148 153 149 153 147 153 150 146 142 144 142 143 145 129 116 126 125 125 127 127 125 130 123 133 142 154 186
93 57 348 325 277 288 53 134 133 119 129 132 132 105 114 137 114 87 84 89 96 128 148 139 158 151 156 151 151 146 146 155 147 147 140 133 123 128 137 136 136 125 129 132 130 145 177 212 226
115 102 84 253 317 284 356 45 158 139 120 131 131 150 157 140 120 104 53 114 131 114 131 140 137 120 135 146 156 153 157 156 157 153 149 140 136 139 143 161 146 133 136 134 142 176 251 283 306
79 99 188 215 244 338 346 59 152 134 135 161 118 144 140 134 132 150 157 140 77 115 141 157 150 147 144 155 169 164 165 167 164 161 156 149 151 147 154 166 155 141 148 170 199 235 274 288 296
15 148 209 214 203 152 319 56 331 144 150 114 115 124 136 139 148 160 163 175 157 159 174 186 164 166 165 163 161 141 184 164 163 165 154 155 183 192 188 183 179 182 195 212 231 257 267 277 291
185 200 199 224 225 146 317 354 357 116 104 147 143 146 147 154 156 162 172 176 175 174 160 180 169 163 164 147 157 170 194 188 191 189 177 197 216 234 178 209 255 309 261 283 280 274 266 272 282
151 191 187 187 204 133 150 291 38 53 268 143 149 158 159 166 167 165 168 177 166 178 163 158 151 149 147 149 156 130 195 205 210 214 195 194 201 220 224 234 247 248 252 255 256 269 270 271 267
188 154 182 154 161 177 116 72 105 65 266 131 158 154 158 166 167 171 169 163 162 162 163 163 139 177 158 138 130 178 220 251 227 200 205 181 196 204 177 241 249 254 253 241 240 245 249 240 253
165 82 64 48 116 155 162 118 174 126 27 171 170 169 177 169 158 141 157 156 161 173 173 156 171 193 152 141 169 203 252 235 223 169 177 188 200 201 201 217 240 255 241 253 222 243 238 225 216
145 110 86 39 166 242 131 118 174 140 6 151 143 210 171 167 141 157 166 162 164 171 161 170 172 188 168 178 182 221 246 222 188 200 195 185 178 197 126 224 253 277 322 345 25 339 344 5 325
122 68 117 278 324 208 119 248 246 193 197 50 281 218 173 152 156 161 171 153 164 159 165 168 175 181 172 178 164 195 233 207 173 156 176 158 181 159 119 28 345 323 34 52 45 41 338 262 174
246 152 104 301 201 265 151 260 232 178 201 155 271 185 185 168 167 167 169 157 163 169 163 168 185 173 176 176 215 204 229 164 150 187 156 185 149 134 109 65 69 76 57 60 54 51 27 23 41
209 131 176 184 204 210 170 242 273 215 206 156 262 260 192 169 187 169 166 160 160 166 167 167 173 179 169 157 148 160 129 133 154 201 194 198 160 147 118 103 129 65 82 50 49 66 51 91 208
231 247 168 215 161 166 200 219 224 224 240 228 217 230 189 164 178 157 165 160 161 162 165 168 161 163 152 154 131 123 152 207 228 240 205 179 188 145 131 142 81 74 85 160 275 107 38 14 322
272 194 174 104 171 146 189 226 209 209 218 215 200 220 195 153 148 150 159 164 169 170 169 167 172 151 175 157 148 152 145 202 240 203 239 201 182 141 155 155 139 145 135 18 5 94 110 341 330
274 173 176 167 192 211 145 283 181 229 259 225 229 215 182 182 170 158 161 168 169 171 172 172 178 163 169 178 123 92 93 64 263 297 241 211 187 166 161 160 149 192 106 159 264 95 95 251 339
205 97 183 162 149 205 156 245 252 193 210 217 231 180 182 193 178 160 173 170 176 178 173 175 178 170 159 165 161 154 168 170 212 195 210 205 212 184 167 162 160 167 141 148 153 158 132 161 66
217 22 133 143 173 99 287 49 270 151 212 217 210 218 192 199 197 166 174 181 180 172 177 178 174 167 168 167 165 164 165 194 190 195 195 215 231 199 182 175 182 185 171 154 245 141 137 157 136
82 59 40 54 111 18 210 152 279 194 213 210 209 218 204 197 198 195 174 180 177 175 172 174 174 174 173 172 169 181 188 186 185 211 192 212 212 205 202 171 197 188 169 167 208 194 169 202 172
79 61 3 358 15 221 125 145 243 296 245 200 201 208 209 184 186 195 181 179 181 178 175 177 179 188 180 177 174 174 193 186 202 194 189 184 206 220 213 190 188 190 185 184 164 176 169 195 202
177 141 155 193 187 258 339 211 257 291 312 206 212 203 196 188 185 197 187 178 181 182 178 180 185 185 185 185 187 175 174 177 204 202 203 203 198 216 215 214 199 194 193 189 170 175 212 197 232
265 119 186 119 71 42 244 318 2 6 29 47 233 178 221 177 188 200 205 173 183 186 183 187 189 187 186 193 192 185 179 175 196 204 203 204 220 226 214 196 204 205 190 196 188 205 218 187 248
147 187 50 14 157 291 320 246 216 216 70 333 275 241 224 167 160 192 178 202 185 185 190 189 189 191 188 186 194 193 188 187 190 194 208 208 226 226 201 188 189 206 207 214 204 213 240 210 235
343 341 78 115 138 164 180 263 249 129 302 192 254 283 180 190 162 144 175 176 197 194 192 188 189 190 188 191 187 195 194 189 185 188 214 200 189 183 180 185 192 198 207 214 205 205 201 205 236
192 198 144 128 246 166 148 267 267 129 189 179 194 146 54 131 198 143 100 164 153 159 191 195 187 190 192 192 189 188 193 193 187 193 204 184 198 194 183 190 200 208 210 214 204 216 213 213 238